Location: Berg
(48.4333°N, 13.9167°E)
Time: 09:03:27
(UTC+00:00)

Ariane Rocket - Pass Details

Date: 18 September 2020
Orbit: 760 x 770 km, 98.7° (Epoch: 27 October)

Event Time Altitude Azimuth Distance (km) Brightness Sun altitude
Exits shadow 18:09:45 - 146° (SE) 2,692 5.4 -10.6°
Reaches altitude 10° 18:10:46 10° 143° (SE) 2,295 5.0 -10.8°
Maximum altitude 18:15:39 51° 69° (ENE) 958 3.2 -11.6°
Drops below altitude 10° 18:20:34 10° 354° (N) 2,316 5.8 -12.4°
Sets 18:22:56 0° 350° (N) 3,248 6.6 -12.7°
